Theta_e
332 327 326 325 323 321 320 320 319 318 318 318 318 318 318 318 318 318 317 316 316 316 315 314 314 313 313 312 311 311 311 311 311 311 312 319 325 339 341 338 342 345 344
329 327 327 326 325 322 320 320 319 319 318 318 318 318 318 318 317 316 316 315 315 315 316 316 316 317 316 316 315 313 311 310 309 309 310 311 315 324 334 341 339 343 344
327 327 327 327 325 323 321 320 320 319 319 319 318 318 318 318 317 317 316 316 316 315 316 317 318 319 319 320 319 318 316 314 311 310 309 320 325 328 323 338 340 340 345
327 328 328 327 326 324 323 320 320 320 319 318 318 318 317 317 317 317 317 317 316 316 317 318 319 320 320 321 321 320 319 317 314 311 329 331 329 327 322 320 341 339 341
327 328 328 328 326 325 323 322 320 319 319 318 318 317 317 317 317 318 318 318 318 317 318 318 319 320 320 321 321 321 320 321 318 317 330 329 329 329 325 318 337 341 340
327 327 328 327 326 325 323 322 321 319 318 318 318 317 317 317 318 318 318 319 319 319 319 319 319 320 320 321 321 321 321 323 329 338 336 334 329 327 327 323 319 336 340
328 327 327 326 326 325 323 322 320 320 319 318 318 318 317 317 318 318 319 320 320 320 320 320 320 320 320 320 320 320 320 321 324 334 339 337 337 331 329 324 314 327 337
335 328 327 326 326 325 323 321 320 320 319 318 318 318 317 317 317 318 319 320 321 321 321 321 321 321 321 320 320 320 320 320 321 330 336 337 336 337 335 323 311 320 328
338 333 329 327 326 324 323 322 320 319 319 318 318 317 317 317 317 317 318 319 320 321 321 321 322 321 321 321 321 321 321 320 321 324 335 335 337 336 336 334 313 314 324
339 336 332 329 328 326 324 323 321 319 318 318 318 317 316 316 316 316 317 318 320 320 321 321 322 322 322 322 322 322 322 321 321 333 329 334 334 333 333 333 323 311 320
338 340 334 332 329 327 325 324 322 321 320 318 317 317 316 316 316 316 316 317 319 320 321 321 321 322 322 323 323 324 334 334 328 336 336 334 334 334 333 332 327 314 318
337 339 341 339 333 331 327 326 324 323 322 321 320 319 317 316 316 316 315 316 317 319 320 321 321 322 323 323 324 333 337 334 337 337 334 334 333 333 332 330 323 320 317
337 337 339 341 339 338 335 334 335 334 332 331 327 321 319 317 317 316 316 318 318 318 319 320 321 321 322 323 326 337 338 337 336 334 334 334 332 330 328 319 318 322 318
337 337 339 340 340 338 339 343 338 333 329 330 332 334 333 328 322 318 320 326 328 328 321 320 321 322 322 323 330 340 339 339 336 335 334 334 333 332 330 323 317 322 321
337 337 338 340 342 342 340 344 343 339 337 335 336 333 338 340 338 330 327 331 333 334 335 332 326 329 335 336 336 338 337 335 336 335 335 334 333 332 330 328 324 320 322
335 335 335 337 336 338 339 334 333 339 337 343 343 341 340 340 342 339 334 333 334 336 336 336 335 333 337 338 338 338 337 337 336 334 335 334 333 333 332 330 326 323 321
335 334 334 336 337 338 337 326 326 325 326 333 342 344 343 342 343 343 339 337 336 335 339 337 336 335 335 337 337 337 338 338 337 336 335 334 334 332 331 330 327 326 321
334 334 333 336 339 337 332 329 327 326 325 326 330 341 343 342 343 343 341 339 339 338 335 335 336 337 336 335 337 337 338 338 335 337 335 334 334 332 331 330 330 326 325
332 332 334 334 337 335 335 332 327 326 326 326 329 338 343 343 343 344 342 341 341 339 337 335 335 334 335 335 336 335 334 336 333 332 334 333 333 331 332 329 327 331 326
332 333 333 335 335 334 333 329 326 326 325 326 333 341 343 343 343 343 343 343 341 340 339 338 336 335 335 335 335 333 335 334 333 333 335 335 334 333 330 329 333 331 330
332 332 333 333 332 333 326 324 323 323 325 331 339 341 343 343 344 344 343 344 342 342 340 338 337 337 336 335 333 334 335 334 335 334 334 334 332 330 327 328 329 328 331
333 332 332 331 330 328 325 323 324 332 338 339 342 344 344 344 344 344 344 343 344 343 342 341 339 337 336 334 336 335 335 334 334 333 333 332 331 332 327 326 330 331 330
332 331 330 330 329 327 324 324 323 326 338 344 344 346 345 345 346 344 344 345 345 342 342 341 339 337 336 338 338 334 334 334 332 331 332 332 332 327 324 328 330 332 330
332 331 330 329 328 327 326 325 327 326 327 334 345 347 347 347 346 346 345 345 347 342 342 341 337 337 338 337 336 334 333 334 333 333 332 332 330 328 328 328 328 330 331
329 329 327 327 328 328 327 324 326 333 328 345 347 348 348 347 346 346 342 345 345 340 344 342 339 338 337 335 334 334 332 332 332 332 331 331 330 329 328 328 330 329 331
328 329 328 327 327 329 329 327 327 329 331 344 346 348 348 347 346 344 343 344 343 341 344 342 339 337 335 334 333 332 333 331 332 332 331 330 330 329 327 328 328 327 330
Wind_Speed
22 20 17 16 16 18 20 21 20 18 17 16 15 14 12 10 8 7 6 5 4 3 3 3 2 2 3 4 5 5 6 7 7 7 6 6 4 3 3 1 4 4 1
28 23 19 16 15 16 18 19 19 18 17 16 15 14 12 10 9 7 5 4 4 3 2 2 3 2 2 3 4 5 6 7 6 5 5 5 5 6 4 3 4 3 5
29 26 21 18 16 15 15 17 17 17 17 15 14 13 12 11 9 7 5 4 2 1 1 2 2 2 2 3 4 4 5 5 6 4 4 6 5 9 9 6 5 4 3
29 27 23 19 16 15 15 15 16 17 17 16 14 14 12 11 9 7 6 4 3 2 1 0 1 1 2 2 4 5 5 5 4 4 7 8 2 9 11 7 6 6 4
28 25 23 20 17 16 15 16 17 17 17 16 15 15 13 11 9 8 7 6 5 4 2 2 2 2 3 3 3 4 5 5 5 6 8 2 4 9 9 6 6 8 8
26 25 23 21 19 17 17 17 18 18 18 17 16 15 13 12 11 9 9 7 7 6 5 4 4 4 4 4 5 5 5 3 4 6 3 9 9 16 10 9 9 6 6
24 25 23 20 19 18 18 18 18 18 17 17 16 16 15 14 13 12 12 11 10 8 7 6 6 5 5 5 5 6 6 4 2 1 5 12 11 10 11 14 10 9 8
23 23 23 22 20 20 19 18 17 17 17 18 18 18 17 16 16 15 15 14 13 11 10 9 8 7 6 6 7 6 6 7 6 6 2 9 14 13 15 11 9 9 9
23 22 22 21 21 22 21 19 19 18 18 19 19 20 19 19 18 18 18 17 16 14 13 12 10 9 9 8 8 7 7 7 7 6 6 13 15 14 13 12 8 10 10
23 22 20 21 21 22 22 22 20 20 20 20 20 21 21 21 21 21 21 21 19 18 17 15 13 12 12 10 9 8 8 9 7 5 2 13 16 17 17 15 10 10 11
24 21 20 21 21 22 22 21 21 21 23 23 23 24 24 25 25 25 26 25 22 22 20 18 17 16 15 13 11 6 8 13 6 3 6 12 15 17 18 17 13 10 12
25 23 20 19 18 17 18 20 19 21 23 25 26 28 29 29 28 28 29 27 26 25 24 22 21 19 19 17 12 9 9 5 2 5 15 16 17 19 21 20 14 12 13
23 27 28 24 19 16 12 13 13 15 18 22 26 30 32 31 30 32 29 28 28 29 29 27 26 25 23 19 11 16 12 5 2 10 18 16 17 17 18 14 14 14 14
23 25 33 24 25 21 16 16 16 15 16 17 18 19 24 27 29 32 32 29 27 23 30 31 29 27 24 20 12 15 14 10 15 12 15 16 15 16 17 14 12 15 16
22 26 26 39 19 15 19 22 19 19 18 20 21 23 25 24 24 27 29 27 26 23 23 21 27 25 18 14 13 16 22 22 18 16 17 17 18 17 15 13 12 15 18
10 4 10 9 12 16 16 21 19 22 21 21 24 27 30 29 26 23 27 29 27 26 23 19 18 22 26 20 17 20 22 23 22 22 18 19 22 17 14 12 12 13 19
17 16 8 12 16 22 20 15 15 16 18 22 26 27 31 32 31 26 26 27 29 30 22 22 21 21 23 26 25 21 22 22 23 20 21 21 19 21 18 15 13 14 18
25 19 19 14 18 17 19 19 16 17 20 23 25 27 31 35 35 29 28 29 27 29 30 27 24 22 23 26 24 20 26 28 27 25 22 22 23 19 20 19 16 16 16
26 26 24 21 18 15 16 19 21 21 23 27 28 27 30 33 34 32 29 31 27 25 27 28 28 30 25 23 20 23 28 28 26 20 22 21 24 25 21 21 18 16 16
27 25 26 26 25 26 24 24 27 30 33 31 29 27 27 30 33 32 28 29 29 27 26 25 25 25 25 23 20 24 24 23 19 19 20 22 24 26 26 23 16 18 15
35 29 30 29 30 26 23 28 31 34 30 28 26 24 25 29 32 32 26 25 26 27 26 25 25 24 21 24 22 23 22 16 16 19 25 27 29 30 27 19 22 22 18
30 29 30 32 29 28 31 29 29 20 20 19 20 20 25 30 32 28 25 25 25 25 22 22 24 25 26 23 21 13 7 11 17 20 21 24 26 26 23 15 19 17 16
25 26 28 32 33 29 28 24 22 23 23 16 21 21 26 30 27 24 21 21 26 18 20 22 26 24 18 17 17 13 5 6 8 10 15 17 20 17 16 17 19 8 13
23 22 25 28 30 28 27 26 26 26 24 27 22 23 25 26 22 21 22 24 22 16 19 15 14 14 18 13 13 14 13 14 5 4 4 9 12 14 14 15 22 19 15
25 27 33 34 36 32 31 29 29 27 22 20 21 22 23 17 23 24 18 22 20 19 13 18 14 15 14 15 15 13 14 11 11 13 8 9 12 12 11 15 9 15 13
32 33 32 35 37 37 36 33 32 29 26 23 19 27 25 20 23 19 21 22 19 18 16 16 13 14 14 16 14 13 10 9 11 11 9 9 5 8 9 11 10 14 13
Wind_Direction
156 153 152 151 148 147 146 145 145 144 142 141 142 143 143 145 144 139 130 121 114 104 96 86 63 23 333 306 291 274 267 272 275 280 284 293 311 321 333 289 139 168 207
151 154 154 156 160 159 155 153 154 153 152 153 155 156 156 157 158 159 151 143 132 118 97 83 73 55 17 337 325 314 303 294 289 287 295 300 305 326 304 277 214 249 227
153 153 159 164 169 166 162 160 163 162 161 167 170 170 169 169 170 168 164 158 154 140 89 59 50 48 32 354 343 332 327 327 320 324 37 47 314 321 308 265 239 237 235
155 156 161 167 175 176 174 171 175 177 177 179 181 183 183 183 179 178 183 183 181 197 187 20 354 356 2 355 350 345 345 354 358 55 78 36 223 286 301 275 251 239 238
159 161 164 169 181 187 186 184 188 190 191 189 192 196 194 193 195 196 196 200 202 212 218 239 279 313 324 334 341 345 352 3 36 100 72 297 222 277 281 283 250 241 242
162 169 172 181 191 197 196 196 197 199 201 202 202 208 208 207 208 214 214 214 217 218 224 238 251 268 290 304 322 333 338 359 77 97 54 300 269 261 279 286 247 244 239
168 173 179 189 200 207 206 204 205 207 209 212 213 216 217 219 221 222 224 223 225 224 228 235 243 253 268 287 299 310 319 317 257 53 65 298 290 279 288 292 249 232 238
173 178 180 195 205 212 214 213 214 216 217 219 220 223 224 226 228 231 232 231 231 231 232 234 241 250 258 268 282 291 299 303 291 183 159 271 276 280 293 302 248 230 227
180 187 181 195 206 214 217 218 220 224 227 228 229 230 230 230 233 236 237 237 236 235 235 236 240 247 252 258 265 277 292 295 287 264 190 265 267 271 280 305 262 228 225
173 189 190 201 211 217 219 220 222 227 234 236 239 237 235 236 237 239 239 238 238 238 239 241 243 245 250 255 262 281 304 308 299 342 202 257 269 281 289 293 277 228 221
174 190 203 206 214 220 226 230 230 232 235 238 242 242 239 238 239 240 239 240 239 241 243 245 245 247 251 253 261 277 315 318 274 17 262 264 270 281 287 293 266 229 217
176 189 197 224 221 218 226 236 235 242 248 251 250 249 245 241 244 244 246 243 240 242 244 244 245 247 249 253 251 265 302 344 111 255 258 261 272 282 290 285 248 226 216
195 195 201 207 229 233 226 239 257 260 258 256 255 254 255 248 245 247 247 248 242 239 242 240 242 244 248 251 257 267 278 255 219 262 262 264 275 283 297 273 239 221 217
205 212 199 208 219 231 224 227 256 267 278 277 274 267 257 256 248 242 244 247 251 248 246 245 246 249 254 259 228 244 261 258 247 251 275 275 272 287 299 279 241 219 214
231 191 218 212 217 229 215 205 232 246 257 274 280 284 275 269 259 248 235 235 246 251 255 251 245 250 255 253 232 218 235 241 248 242 260 272 282 280 292 282 250 220 213
234 222 198 192 227 244 244 214 220 233 246 246 254 265 273 273 264 250 241 225 225 245 250 262 245 235 245 246 246 233 243 248 248 254 243 258 264 267 275 282 253 230 214
243 246 236 217 226 238 229 226 238 245 253 245 234 242 255 262 261 256 241 234 226 219 233 242 251 238 228 237 240 243 253 240 255 247 243 253 262 263 265 270 257 242 220
234 233 247 225 227 237 234 241 257 269 276 274 271 238 246 254 254 248 239 230 234 229 223 227 228 234 235 238 237 242 248 252 263 245 243 246 245 264 261 261 254 247 230
231 230 224 228 212 208 238 245 252 263 266 266 266 256 235 249 253 244 239 227 232 235 226 228 235 232 238 239 240 247 253 256 267 244 236 247 243 252 253 256 249 253 241
215 221 230 218 223 223 228 245 259 266 268 265 258 244 242 238 247 246 242 229 222 229 228 227 230 232 233 238 244 252 256 269 256 237 242 235 227 238 250 245 237 237 246
222 210 223 228 228 227 244 253 257 259 260 258 259 244 239 236 237 244 238 220 220 227 226 224 227 231 230 236 240 253 270 253 252 243 244 246 253 261 256 242 239 234 233
205 214 228 242 248 248 256 253 252 249 258 256 255 242 231 235 238 241 226 208 227 221 222 219 225 225 233 234 238 257 267 250 259 267 264 257 255 261 254 252 228 212 221
210 220 242 251 257 260 252 245 243 235 229 222 230 236 230 233 238 226 218 199 228 230 220 223 223 225 222 231 239 225 223 234 277 273 260 255 254 256 239 248 224 172 203
221 227 240 250 254 253 245 233 231 241 237 227 229 230 235 233 227 220 218 197 224 219 214 232 235 219 217 227 232 237 253 247 263 289 265 266 261 249 242 231 219 215 207
239 247 256 257 251 244 240 232 229 225 237 216 215 224 230 227 214 221 208 196 218 199 212 223 215 223 226 230 244 239 254 258 263 253 270 245 250 244 228 228 229 202 204
249 243 238 249 233 233 237 236 233 224 222 211 207 210 214 214 212 214 196 200 207 200 209 211 223 221 226 237 245 246 240 244 239 254 256 269 249 207 194 205 205 204 204